User: anonymous   Login
Location: Unspecified
(0.0000°N, 0.0000°E)
Time: 00:42:01
(UTC+00:00)
Language:

NADEZHDA 7 - Orbit

View from above orbital plane
View from above orbital plane
View from above satellite
View from above satellite

Ground track
Ground track

The orbit data is extracted from the following two-line orbital elements,

1 27534U 02046A   17206.54137906 +.00000015 +00000-0 -39813-6 0  9991
2 27534 082.9335 210.7557 0036276 002.0120 110.9078 13.72687720742944
Epoch (UTC): 25 July 2017 12:59:35
Eccentricity: 0.0036276
inclination: 82.9335°
perigee height: 963 km
apogee height: 1016 km
right ascension of ascending node: 210.7557°
argument of perigee: 2.0120°
revolutions per day: 13.72687720
mean anomaly at epoch: 110.9078°
orbit number at epoch: 74294

The dashed part of the orbit path shows where the satellite is in the earth's shadow,  

DLR